Weather History for Reno - Stead, NV

Change the Weather History Date:

Friday, May 16, 2014

  Actual Average (KRNO) Record (KRNO)
Temperature  
Mean Temperature 64 °F 60 °F  
Max Temperature 82 °F 74 °F 95 °F (1970)
Min Temperature 46 °F 46 °F 25 °F (1943)
Degree Days  
Heating Degree Days 1 6  
Month to date heating degree days 132  
Since 1 July heating degree days 4794  
Cooling Degree Days 0 1  
Month to date cooling degree days 9  
Year to date cooling degree days 10  
Growing Degree Days 14 (Base 50)    
Moisture  
Dew Point 10 °F    
Average Humidity 14    
Maximum Humidity 30    
Minimum Humidity 4    
Precipitation  
Precipitation 0.00 in 0.02 in 0.85 in (1962)
Month to date precipitation 0.25  
Year to date precipitation 3.53  
Snow  
Snow 0.00 in 0.00 in 9.00 in (1962)
Month to date snowfall 0.2  
Since 1 July snowfall 21.7  
Snow Depth -    
Sea Level Pressure  
Sea Level Pressure 30.15 in    
Wind  
Wind Speed 9 mph (West)    
Max Wind Speed 25 mph    
Max Gust Speed 34 mph    
Visibility 10 miles    
Events      
T = Trace of Precipitation, MM = Missing Value Source: NWS Daily Summary

Daily Weather History Graph

Daily Weather History Graph

Search for Another Location

Airport:

Trip Planner

Search our weather history database for the weather conditions in past years. The results will help you decide how hot, cold, wet, or windy it might be!

Date:

Astronomy

May. 16, 2014 Rise Set
Actual Time 5:44 AM PDT 8:08 PM PDT
Civil Twilight 5:13 AM PDT 8:38 PM PDT
Nautical Twilight 4:35 AM PDT 9:16 PM PDT
Astronomical Twilight 3:54 AM PDT 9:58 PM PDT
Moon 10:19 PM PDT (5/16) 7:30 AM PDT (5/16)
Length of Visible Light 15h 25m
Length of Day
14h 24m
Waning Gibbous, 95% of the Moon is Illuminated
May 16
Waning Gibbous
May 21
Last Quarter
May 28
New
Jun 5
First Quarter
Jun 12
Full

Hourly Weather History & Observations

Time (PDT) Temp. Windchill Dew Point Humidity Pressure Visibility Wind Dir Wind Speed Gust Speed Precip Events Conditions
12:15 AM 55.4 °F - 15.8 °F 21% 30.25 in 10.0 mi North 3.5 mph - N/A   Clear
12:35 AM 53.6 °F - 15.8 °F 22% 30.25 in 10.0 mi NNW 5.8 mph - N/A   Clear
12:55 AM 53.6 °F - 17.6 °F 24% 30.25 in 10.0 mi NNW 6.9 mph - N/A   Clear
1:15 AM 55.4 °F - 17.6 °F 23% 30.24 in 10.0 mi NNW 6.9 mph - N/A   Clear
1:35 AM 53.6 °F - 17.6 °F 24% 30.23 in 10.0 mi NNW 8.1 mph - N/A   Clear
1:55 AM 51.8 °F - 17.6 °F 26% 30.22 in 10.0 mi NNW 10.4 mph - N/A   Clear
2:15 AM 53.6 °F - 17.6 °F 24% 30.22 in 10.0 mi NW 6.9 mph - N/A   Clear
2:35 AM 53.6 °F - 15.8 °F 22% 30.22 in 10.0 mi NW 6.9 mph - N/A   Clear
2:55 AM 50.0 °F - 15.8 °F 26% 30.21 in 10.0 mi NNW 5.8 mph - N/A   Clear
3:15 AM 48.2 °F - 15.8 °F 27% 30.21 in 10.0 mi NNW 9.2 mph - N/A   Clear
3:35 AM 48.2 °F - 15.8 °F 27% 30.21 in 10.0 mi NNW 10.4 mph - N/A   Clear
3:55 AM 48.2 °F - 15.8 °F 27% 30.20 in 10.0 mi NNW 10.4 mph - N/A   Clear
4:15 AM 46.4 °F 41.9 °F 14.0 °F 27% 30.20 in 10.0 mi North 9.2 mph - N/A   Clear
4:35 AM 46.4 °F 41.9 °F 15.8 °F 29% 30.20 in 10.0 mi North 9.2 mph - N/A   Clear
4:55 AM 46.4 °F 44.3 °F 14.0 °F 27% 30.20 in 10.0 mi NW 4.6 mph - N/A   Clear
5:15 AM 46.4 °F 44.3 °F 15.8 °F 29% 30.20 in 10.0 mi NNW 4.6 mph - N/A   Clear
5:35 AM 46.4 °F - 15.8 °F 29% 30.20 in 10.0 mi Calm Calm - N/A   Clear
5:55 AM 48.2 °F - 15.8 °F 27% 30.20 in 10.0 mi Calm Calm - N/A   Clear
6:15 AM 46.4 °F - 15.8 °F 29% 30.20 in 10.0 mi Calm Calm - N/A   Clear
6:35 AM 48.2 °F - 15.8 °F 27% 30.20 in 10.0 mi Calm Calm - N/A   Clear
6:55 AM 48.2 °F - 17.6 °F 30% 30.20 in 10.0 mi Calm Calm - N/A   Clear
7:15 AM 51.8 °F - 19.4 °F 28% 30.21 in 10.0 mi SSW 5.8 mph - N/A   Clear
7:35 AM 53.6 °F - 19.4 °F 26% 30.20 in 10.0 mi Calm Calm - N/A   Clear
7:55 AM 57.2 °F - 19.4 °F 23% 30.19 in 10.0 mi East 3.5 mph - N/A   Clear
8:15 AM 64.4 °F - 17.6 °F 16% 30.19 in 10.0 mi ESE 3.5 mph - N/A   Clear
8:35 AM 66.2 °F - 19.4 °F 17% 30.19 in 10.0 mi Calm Calm - N/A   Clear
8:55 AM 68.0 °F - 15.8 °F 13% 30.19 in 10.0 mi ENE 3.5 mph - N/A   Clear
9:15 AM 71.6 °F - 10.4 °F 9% 30.18 in 10.0 mi West 3.5 mph - N/A   Clear
9:35 AM 73.4 °F - 6.8 °F 8% 30.18 in 10.0 mi West 5.8 mph - N/A   Clear
9:55 AM 73.4 °F - 1.4 °F 6% 30.17 in 10.0 mi West 12.7 mph 20.7 mph N/A   Clear
10:15 AM 75.2 °F - 3.2 °F 6% 30.17 in 10.0 mi West 17.3 mph 25.3 mph N/A   Clear
10:35 AM 75.2 °F - 5.0 °F 7% 30.17 in 10.0 mi SW 11.5 mph 19.6 mph N/A   Clear
10:55 AM 77.0 °F - 8.6 °F 7% 30.17 in 10.0 mi WSW 12.7 mph 23.0 mph N/A   Clear
11:15 AM 75.2 °F - 8.6 °F 8% 30.16 in 10.0 mi WSW 10.4 mph - N/A   Clear
11:35 AM 77.0 °F - 8.6 °F 7% 30.15 in 10.0 mi WSW 11.5 mph 20.7 mph N/A   Clear
11:55 AM 78.8 °F - 6.8 °F 6% 30.15 in 10.0 mi WSW 17.3 mph 26.5 mph N/A   Clear
12:15 PM 78.8 °F - 6.8 °F 6% 30.14 in 10.0 mi WSW 18.4 mph 23.0 mph N/A   Clear
12:35 PM 78.8 °F - 6.8 °F 6% 30.14 in 10.0 mi SW 11.5 mph 27.6 mph N/A   Clear
1:15 PM 80.6 °F - 8.6 °F 6% 30.12 in 10.0 mi SW 17.3 mph 27.6 mph N/A   Clear
1:35 PM 80.6 °F - 10.4 °F 7% 30.11 in 10.0 mi SW 23.0 mph 33.4 mph N/A   Clear
1:55 PM 82.4 °F - 8.6 °F 6% 30.11 in 10.0 mi SW 23.0 mph 27.6 mph N/A   Clear
2:15 PM 82.4 °F - 8.6 °F 6% 30.11 in 10.0 mi WSW 18.4 mph 28.8 mph N/A   Clear
2:35 PM 80.6 °F - 6.8 °F 6% 30.11 in 10.0 mi WSW 20.7 mph 27.6 mph N/A   Clear
2:55 PM 80.6 °F - 6.8 °F 6% 30.11 in 10.0 mi WSW 20.7 mph 29.9 mph N/A   Clear
3:15 PM 80.6 °F - 1.4 °F 5% 30.10 in 10.0 mi WSW 23.0 mph 31.1 mph N/A   Clear
3:35 PM 80.6 °F - 1.4 °F 5% 30.10 in 10.0 mi WSW 19.6 mph 28.8 mph N/A   Clear
3:55 PM 80.6 °F - -0.4 °F 4% 30.09 in 10.0 mi SW 19.6 mph 31.1 mph N/A   Clear
4:15 PM 80.6 °F - 1.4 °F 5% 30.09 in 10.0 mi West 19.6 mph 28.8 mph N/A   Clear
4:35 PM 80.6 °F - 3.2 °F 5% 30.09 in 10.0 mi WSW 18.4 mph 25.3 mph N/A   Clear
4:55 PM 78.8 °F - 5.0 °F 6% 30.09 in 10.0 mi WSW 18.4 mph 27.6 mph N/A   Clear
5:15 PM 78.8 °F - 3.2 °F 5% 30.09 in 10.0 mi WSW 20.7 mph 27.6 mph N/A   Clear
5:35 PM 77.0 °F - -0.4 °F 5% 30.08 in 10.0 mi West 25.3 mph 34.5 mph N/A   Clear
5:55 PM 77.0 °F - -4.0 °F 4% 30.08 in 10.0 mi West 21.9 mph 28.8 mph N/A   Clear
6:15 PM 75.2 °F - -2.2 °F 5% 30.08 in 10.0 mi West 19.6 mph 27.6 mph N/A   Clear
6:35 PM 75.2 °F - -4.0 °F 4% 30.08 in 10.0 mi West 19.6 mph 25.3 mph N/A   Clear
6:55 PM 73.4 °F - -0.4 °F 5% 30.07 in 10.0 mi West 24.2 mph - N/A   Clear
7:15 PM 73.4 °F - 1.4 °F 6% 30.08 in 10.0 mi West 17.3 mph 24.2 mph N/A   Clear
7:35 PM 71.6 °F - 1.4 °F 6% 30.08 in 10.0 mi West 17.3 mph 25.3 mph N/A   Clear
7:55 PM 69.8 °F - 3.2 °F 7% 30.08 in 10.0 mi WSW 15.0 mph 23.0 mph N/A   Clear
8:15 PM 68.0 °F - 1.4 °F 7% 30.08 in 10.0 mi West 12.7 mph - N/A   Clear
8:35 PM 66.2 °F - 3.2 °F 8% 30.09 in 10.0 mi West 8.1 mph - N/A   Clear
8:55 PM 64.4 °F - 5.0 °F 10% 30.11 in 10.0 mi WNW 4.6 mph - N/A   Clear
9:15 PM 62.6 °F - 6.8 °F 11% 30.12 in 10.0 mi NNW 11.5 mph - N/A   Clear
9:35 PM 62.6 °F - 8.6 °F 12% 30.12 in 10.0 mi NW 9.2 mph - N/A   Clear
9:55 PM 59.0 °F - 8.6 °F 14% 30.13 in 10.0 mi NNW 5.8 mph - N/A   Clear
10:15 PM 59.0 °F - 10.4 °F 15% 30.12 in 10.0 mi WNW 6.9 mph - N/A   Clear
10:35 PM 57.2 °F - 10.4 °F 16% 30.12 in 10.0 mi West 8.1 mph - N/A   Clear
10:55 PM 57.2 °F - 12.2 °F 17% 30.12 in 10.0 mi West 5.8 mph - N/A   Clear
11:15 PM 55.4 °F - 12.2 °F 18% 30.11 in 10.0 mi WNW 12.7 mph - N/A   Clear
11:55 PM 53.6 °F - 14.0 °F 21% 30.12 in 10.0 mi WNW 5.8 mph - N/A   Clear